QPF
0.02 0.01 0.00 0.00 0.00 0.00 0.00 0.00 0.00 0.00 0.00 0.01 0.02 0.03 0.03 0.02 0.01 0.01 0.01 0.02 0.02 0.03 0.05 0.08 0.10 0.11 0.10 0.08 0.06 0.06 0.05 0.05 0.04 0.04 0.04 0.04 0.03 0.03 0.02 0.02 0.02 0.03 0.03
0.04 0.04 0.03 0.02 0.01 0.00 0.00 0.00 0.00 0.00 0.00 0.00 0.01 0.01 0.02 0.02 0.02 0.03 0.03 0.03 0.02 0.02 0.03 0.05 0.08 0.10 0.11 0.10 0.09 0.08 0.05 0.04 0.04 0.05 0.04 0.04 0.04 0.03 0.03 0.02 0.02 0.02 0.02
0.03 0.03 0.03 0.03 0.02 0.02 0.02 0.02 0.01 0.01 0.01 0.01 0.01 0.01 0.01 0.01 0.01 0.01 0.02 0.03 0.03 0.03 0.04 0.06 0.07 0.10 0.11 0.12 0.13 0.11 0.09 0.07 0.05 0.05 0.05 0.05 0.05 0.04 0.04 0.04 0.04 0.03 0.02
0.03 0.02 0.03 0.03 0.04 0.06 0.06 0.06 0.05 0.03 0.02 0.01 0.01 0.01 0.00 0.00 0.01 0.01 0.01 0.01 0.02 0.03 0.04 0.06 0.07 0.08 0.10 0.12 0.14 0.16 0.15 0.13 0.10 0.07 0.06 0.06 0.05 0.05 0.05 0.05 0.05 0.05 0.04
0.02 0.01 0.01 0.01 0.01 0.02 0.04 0.06 0.07 0.04 0.02 0.01 0.00 0.00 0.00 0.00 0.00 0.00 0.00 0.01 0.01 0.02 0.06 0.09 0.09 0.09 0.11 0.15 0.17 0.18 0.19 0.18 0.14 0.11 0.09 0.08 0.07 0.07 0.06 0.06 0.06 0.05 0.05
0.01 0.01 0.01 0.01 0.01 0.00 0.01 0.01 0.02 0.02 0.01 0.01 0.00 0.00 0.00 0.00 0.00 0.00 0.00 0.00 0.01 0.01 0.03 0.04 0.05 0.07 0.09 0.11 0.12 0.13 0.14 0.16 0.17 0.15 0.12 0.11 0.10 0.09 0.09 0.09 0.09 0.08 0.07
0.02 0.01 0.02 0.01 0.01 0.00 0.00 0.00 0.00 0.00 0.00 0.00 0.00 0.00 0.00 0.00 0.00 0.00 0.00 0.00 0.00 0.00 0.01 0.02 0.02 0.03 0.05 0.06 0.07 0.07 0.07 0.09 0.12 0.15 0.15 0.14 0.12 0.12 0.11 0.12 0.12 0.12 0.11
0.01 0.01 0.02 0.01 0.01 0.01 0.01 0.00 0.00 0.00 0.00 0.00 0.00 0.00 0.00 0.00 0.00 0.00 0.01 0.00 0.00 0.00 0.01 0.01 0.02 0.02 0.02 0.03 0.03 0.05 0.05 0.05 0.07 0.10 0.12 0.13 0.12 0.14 0.15 0.15 0.14 0.12 0.12
0.02 0.02 0.02 0.02 0.01 0.01 0.00 0.00 0.00 0.00 0.00 0.00 0.00 0.00 0.00 0.00 0.00 0.01 0.01 0.01 0.00 0.00 0.00 0.01 0.01 0.02 0.02 0.02 0.02 0.03 0.03 0.04 0.05 0.06 0.09 0.11 0.12 0.12 0.13 0.15 0.15 0.14 0.13
0.01 0.01 0.02 0.02 0.01 0.01 0.00 0.00 0.00 0.00 0.00 0.00 0.00 0.00 0.00 0.00 0.00 0.01 0.00 0.00 0.00 0.00 0.00 0.00 0.01 0.02 0.03 0.03 0.03 0.03 0.02 0.02 0.03 0.04 0.06 0.09 0.11 0.13 0.13 0.14 0.14 0.13 0.12
0.01 0.01 0.02 0.01 0.01 0.00 0.00 0.00 0.00 0.00 0.00 0.00 0.00 0.00 0.00 0.00 0.00 0.01 0.00 0.00 0.00 0.00 0.00 0.00 0.00 0.01 0.01 0.02 0.03 0.03 0.03 0.03 0.03 0.03 0.05 0.07 0.10 0.12 0.14 0.14 0.15 0.14 0.12
0.02 0.02 0.01 0.01 0.01 0.00 0.00 0.00 0.00 0.00 0.00 0.00 0.00 0.00 0.00 0.00 0.00 0.00 0.00 0.00 0.00 0.00 0.00 0.00 0.00 0.01 0.01 0.01 0.02 0.03 0.03 0.04 0.04 0.04 0.05 0.07 0.09 0.10 0.11 0.13 0.14 0.16 0.15
0.01 0.01 0.01 0.00 0.00 0.00 0.00 0.00 0.00 0.00 0.00 0.00 0.00 0.00 0.00 0.00 0.00 0.00 0.01 0.00 0.00 0.00 0.00 0.00 0.00 0.00 0.01 0.01 0.02 0.02 0.03 0.03 0.04 0.04 0.05 0.05 0.06 0.06 0.07 0.08 0.11 0.14 0.16
0.00 0.00 0.01 0.00 0.00 0.00 0.00 0.00 0.00 0.00 0.00 0.00 0.00 0.00 0.00 0.00 0.00 0.00 0.01 0.01 0.00 0.00 0.00 0.00 0.00 0.00 0.00 0.01 0.02 0.02 0.02 0.04 0.05 0.05 0.05 0.05 0.05 0.05 0.05 0.05 0.06 0.10 0.13
0.00 0.00 0.00 0.00 0.00 0.00 0.00 0.00 0.00 0.00 0.00 0.00 0.00 0.00 0.00 0.00 0.00 0.00 0.00 0.01 0.01 0.01 0.00 0.00 0.00 0.00 0.00 0.01 0.01 0.02 0.03 0.04 0.05 0.05 0.05 0.05 0.04 0.04 0.05 0.05 0.06 0.07 0.09
0.00 0.00 0.00 0.00 0.00 0.00 0.00 0.00 0.00 0.00 0.00 0.00 0.00 0.00 0.00 0.00 0.00 0.00 0.00 0.00 0.01 0.01 0.01 0.00 0.00 0.01 0.01 0.01 0.01 0.02 0.03 0.05 0.06 0.06 0.06 0.06 0.06 0.05 0.05 0.05 0.05 0.07 0.09
0.00 0.00 0.00 0.00 0.00 0.00 0.00 0.00 0.00 0.00 0.00 0.00 0.00 0.00 0.00 0.00 0.00 0.00 0.00 0.00 0.01 0.01 0.01 0.01 0.01 0.01 0.01 0.01 0.01 0.01 0.02 0.04 0.05 0.06 0.06 0.06 0.06 0.05 0.05 0.04 0.04 0.05 0.06
0.00 0.00 0.00 0.00 0.00 0.00 0.00 0.00 0.00 0.00 0.00 0.00 0.00 0.00 0.00 0.00 0.00 0.00 0.00 0.00 0.00 0.01 0.01 0.01 0.01 0.01 0.01 0.01 0.01 0.01 0.02 0.02 0.03 0.04 0.05 0.05 0.05 0.04 0.04 0.04 0.03 0.03 0.04
0.00 0.00 0.00 0.00 0.00 0.00 0.00 0.00 0.00 0.00 0.00 0.00 0.00 0.00 0.00 0.00 0.00 0.00 0.00 0.00 0.00 0.00 0.01 0.01 0.01 0.01 0.01 0.01 0.02 0.02 0.02 0.02 0.02 0.02 0.02 0.02 0.02 0.02 0.02 0.02 0.03 0.03 0.04
0.00 0.00 0.00 0.00 0.00 0.00 0.00 0.00 0.00 0.00 0.00 0.00 0.00 0.00 0.00 0.00 0.00 0.00 0.00 0.01 0.01 0.00 0.00 0.01 0.01 0.01 0.01 0.01 0.02 0.02 0.02 0.01 0.01 0.01 0.01 0.01 0.01 0.01 0.01 0.01 0.01 0.02 0.03
0.00 0.00 0.00 0.00 0.00 0.00 0.00 0.00 0.00 0.00 0.00 0.00 0.00 0.00 0.00 0.00 0.00 0.00 0.00 0.00 0.00 0.00 0.00 0.01 0.01 0.01 0.01 0.01 0.01 0.01 0.01 0.01 0.01 0.01 0.01 0.01 0.01 0.02 0.02 0.02 0.01 0.01 0.02
0.00 0.00 0.00 0.00 0.00 0.00 0.00 0.00 0.00 0.00 0.00 0.00 0.00 0.00 0.00 0.00 0.00 0.00 0.00 0.00 0.00 0.00 0.01 0.01 0.02 0.02 0.02 0.02 0.02 0.01 0.01 0.01 0.01 0.01 0.01 0.01 0.01 0.01 0.02 0.02 0.02 0.01 0.01
0.00 0.00 0.00 0.00 0.00 0.00 0.00 0.00 0.00 0.00 0.00 0.00 0.00 0.00 0.00 0.00 0.00 0.00 0.00 0.00 0.00 0.00 0.00 0.01 0.01 0.01 0.02 0.02 0.02 0.02 0.02 0.02 0.01 0.01 0.01 0.01 0.01 0.01 0.01 0.02 0.02 0.01 0.01
0.00 0.00 0.00 0.00 0.00 0.00 0.00 0.00 0.00 0.00 0.00 0.00 0.00 0.00 0.00 0.00 0.00 0.00 0.00 0.00 0.00 0.00 0.00 0.00 0.00 0.00 0.01 0.01 0.01 0.01 0.01 0.01 0.01 0.01 0.02 0.02 0.01 0.01 0.01 0.01 0.01 0.01 0.01
0.00 0.00 0.00 0.00 0.00 0.00 0.00 0.00 0.00 0.00 0.00 0.00 0.00 0.00 0.00 0.00 0.00 0.00 0.00 0.00 0.00 0.00 0.00 0.00 0.00 0.00 0.00 0.00 0.01 0.01 0.01 0.01 0.01 0.01 0.01 0.01 0.01 0.00 0.00 0.00 0.01 0.01 0.01
0.00 0.00 0.00 0.00 0.00 0.00 0.00 0.00 0.00 0.00 0.00 0.00 0.00 0.00 0.00 0.00 0.00 0.00 0.00 0.00 0.00 0.00 0.00 0.00 0.00 0.00 0.00 0.00 0.00 0.00 0.00 0.01 0.01 0.01 0.00 0.00 0.00 0.00 0.00 0.00 0.00 0.00 0.01
MSLP
1020.74 1020.45 1020.11 1019.74 1019.37 1019.03 1018.72 1018.42 1018.13 1017.83 1017.49 1017.14 1016.77 1016.41 1016.07 1015.77 1015.51 1015.29 1015.09 1014.91 1014.71 1014.50 1014.28 1014.08 1013.90 1013.78 1013.72 1013.71 1013.75 1013.81 1013.88 1013.92 1013.93 1013.90 1013.84 1013.77 1013.70 1013.65 1013.62 1013.62 1013.65 1013.71 1013.79
1021.00 1020.70 1020.36 1019.99 1019.62 1019.28 1018.96 1018.65 1018.34 1018.01 1017.65 1017.28 1016.89 1016.52 1016.18 1015.89 1015.65 1015.46 1015.29 1015.13 1014.97 1014.80 1014.62 1014.44 1014.28 1014.14 1014.05 1014.00 1013.97 1013.96 1013.95 1013.92 1013.86 1013.77 1013.66 1013.54 1013.43 1013.32 1013.23 1013.17 1013.13 1013.12 1013.14
1021.18 1020.89 1020.57 1020.22 1019.89 1019.56 1019.25 1018.94 1018.62 1018.28 1017.90 1017.51 1017.11 1016.73 1016.39 1016.11 1015.89 1015.72 1015.60 1015.49 1015.39 1015.27 1015.14 1015.00 1014.85 1014.72 1014.61 1014.51 1014.42 1014.33 1014.23 1014.11 1013.97 1013.81 1013.64 1013.46 1013.29 1013.12 1012.97 1012.83 1012.71 1012.62 1012.56
1021.30 1021.04 1020.75 1020.46 1020.18 1019.90 1019.62 1019.33 1019.01 1018.65 1018.26 1017.84 1017.43 1017.04 1016.70 1016.43 1016.23 1016.11 1016.03 1015.97 1015.93 1015.87 1015.80 1015.71 1015.60 1015.48 1015.34 1015.21 1015.05 1014.88 1014.69 1014.49 1014.26 1014.02 1013.77 1013.53 1013.30 1013.07 1012.85 1012.65 1012.45 1012.26 1012.10
1021.38 1021.17 1020.94 1020.72 1020.51 1020.29 1020.06 1019.80 1019.49 1019.13 1018.72 1018.29 1017.86 1017.46 1017.13 1016.87 1016.70 1016.60 1016.57 1016.56 1016.57 1016.58 1016.56 1016.51 1016.44 1016.33 1016.19 1016.01 1015.81 1015.56 1015.29 1014.99 1014.67 1014.35 1014.04 1013.73 1013.45 1013.17 1012.89 1012.62 1012.35 1012.07 1011.81
1021.45 1021.29 1021.13 1020.99 1020.86 1020.71 1020.54 1020.31 1020.02 1019.66 1019.25 1018.82 1018.38 1017.99 1017.66 1017.42 1017.27 1017.20 1017.20 1017.24 1017.29 1017.34 1017.36 1017.35 1017.30 1017.20 1017.05 1016.85 1016.59 1016.28 1015.93 1015.54 1015.15 1014.76 1014.38 1014.03 1013.70 1013.38 1013.07 1012.75 1012.42 1012.07 1011.72
1021.53 1021.41 1021.33 1021.26 1021.20 1021.13 1021.01 1020.82 1020.56 1020.22 1019.82 1019.39 1018.97 1018.59 1018.28 1018.05 1017.92 1017.88 1017.89 1017.95 1018.03 1018.10 1018.14 1018.15 1018.11 1018.01 1017.84 1017.61 1017.31 1016.95 1016.53 1016.09 1015.63 1015.18 1014.76 1014.38 1014.02 1013.68 1013.35 1013.01 1012.63 1012.23 1011.81
1021.61 1021.53 1021.50 1021.49 1021.50 1021.48 1021.41 1021.26 1021.03 1020.72 1020.35 1019.95 1019.55 1019.20 1018.92 1018.73 1018.62 1018.58 1018.61 1018.67 1018.74 1018.80 1018.84 1018.84 1018.79 1018.68 1018.49 1018.24 1017.90 1017.50 1017.05 1016.56 1016.06 1015.58 1015.13 1014.73 1014.36 1014.02 1013.69 1013.34 1012.96 1012.53 1012.06
1021.68 1021.63 1021.63 1021.67 1021.71 1021.73 1021.69 1021.58 1021.39 1021.12 1020.79 1020.43 1020.09 1019.78 1019.55 1019.38 1019.29 1019.27 1019.29 1019.33 1019.37 1019.40 1019.41 1019.38 1019.31 1019.17 1018.97 1018.69 1018.33 1017.91 1017.44 1016.93 1016.41 1015.91 1015.45 1015.05 1014.69 1014.36 1014.04 1013.71 1013.33 1012.90 1012.42
1021.74 1021.70 1021.71 1021.76 1021.82 1021.86 1021.85 1021.77 1021.61 1021.38 1021.10 1020.81 1020.52 1020.28 1020.10 1019.97 1019.90 1019.88 1019.88 1019.89 1019.89 1019.88 1019.84 1019.77 1019.65 1019.49 1019.27 1018.98 1018.62 1018.19 1017.71 1017.20 1016.68 1016.19 1015.74 1015.34 1014.99 1014.68 1014.38 1014.06 1013.71 1013.30 1012.83
1021.75 1021.71 1021.73 1021.78 1021.84 1021.88 1021.88 1021.82 1021.69 1021.50 1021.28 1021.05 1020.84 1020.66 1020.53 1020.45 1020.40 1020.38 1020.36 1020.33 1020.29 1020.22 1020.13 1020.01 1019.86 1019.68 1019.44 1019.15 1018.80 1018.38 1017.92 1017.42 1016.92 1016.43 1015.99 1015.60 1015.26 1014.96 1014.67 1014.38 1014.05 1013.66 1013.22
1021.70 1021.66 1021.68 1021.72 1021.77 1021.81 1021.81 1021.77 1021.66 1021.51 1021.34 1021.17 1021.03 1020.91 1020.84 1020.79 1020.76 1020.74 1020.70 1020.64 1020.56 1020.45 1020.31 1020.16 1019.99 1019.78 1019.55 1019.26 1018.93 1018.53 1018.09 1017.62 1017.13 1016.67 1016.23 1015.84 1015.51 1015.21 1014.93 1014.64 1014.33 1013.96 1013.55
1021.58 1021.55 1021.56 1021.61 1021.65 1021.69 1021.68 1021.64 1021.56 1021.44 1021.31 1021.19 1021.10 1021.04 1021.00 1020.99 1020.98 1020.96 1020.92 1020.84 1020.73 1020.59 1020.42 1020.25 1020.06 1019.86 1019.63 1019.36 1019.05 1018.68 1018.27 1017.82 1017.36 1016.90 1016.47 1016.08 1015.73 1015.42 1015.13 1014.84 1014.53 1014.18 1013.79
1021.36 1021.36 1021.39 1021.44 1021.49 1021.52 1021.51 1021.47 1021.40 1021.31 1021.21 1021.13 1021.07 1021.05 1021.05 1021.06 1021.07 1021.05 1021.01 1020.92 1020.80 1020.65 1020.49 1020.31 1020.13 1019.93 1019.71 1019.47 1019.18 1018.84 1018.45 1018.02 1017.57 1017.12 1016.69 1016.29 1015.92 1015.59 1015.27 1014.97 1014.65 1014.31 1013.93
1021.02 1021.07 1021.13 1021.20 1021.26 1021.30 1021.30 1021.27 1021.21 1021.13 1021.05 1021.00 1020.96 1020.96 1020.98 1021.01 1021.03 1021.02 1020.99 1020.91 1020.80 1020.66 1020.51 1020.35 1020.18 1020.00 1019.80 1019.57 1019.30 1018.99 1018.61 1018.20 1017.76 1017.31 1016.87 1016.45 1016.06 1015.69 1015.36 1015.03 1014.69 1014.35 1013.98
1020.57 1020.67 1020.77 1020.87 1020.96 1021.01 1021.03 1021.01 1020.97 1020.90 1020.84 1020.80 1020.77 1020.78 1020.81 1020.85 1020.88 1020.89 1020.86 1020.81 1020.72 1020.61 1020.48 1020.34 1020.20 1020.04 1019.86 1019.65 1019.39 1019.08 1018.72 1018.31 1017.87 1017.41 1016.96 1016.52 1016.11 1015.73 1015.37 1015.01 1014.66 1014.31 1013.94
1020.00 1020.14 1020.28 1020.41 1020.53 1020.61 1020.66 1020.66 1020.64 1020.60 1020.55 1020.52 1020.51 1020.52 1020.55 1020.59 1020.63 1020.65 1020.64 1020.61 1020.56 1020.48 1020.38 1020.27 1020.15 1020.01 1019.84 1019.63 1019.38 1019.07 1018.70 1018.29 1017.85 1017.39 1016.93 1016.48 1016.06 1015.66 1015.28 1014.91 1014.55 1014.19 1013.82
1019.30 1019.47 1019.64 1019.80 1019.94 1020.06 1020.14 1020.18 1020.19 1020.18 1020.16 1020.15 1020.15 1020.17 1020.20 1020.24 1020.29 1020.32 1020.33 1020.32 1020.29 1020.24 1020.18 1020.10 1020.00 1019.87 1019.70 1019.50 1019.23 1018.92 1018.54 1018.13 1017.68 1017.22 1016.76 1016.31 1015.89 1015.48 1015.10 1014.73 1014.36 1014.00 1013.63
1018.51 1018.67 1018.85 1019.03 1019.20 1019.34 1019.46 1019.55 1019.61 1019.64 1019.66 1019.68 1019.70 1019.73 1019.77 1019.81 1019.86 1019.89 1019.92 1019.93 1019.92 1019.90 1019.86 1019.80 1019.71 1019.59 1019.43 1019.22 1018.95 1018.62 1018.25 1017.83 1017.38 1016.92 1016.46 1016.02 1015.60 1015.21 1014.83 1014.46 1014.10 1013.73 1013.37
1017.67 1017.80 1017.95 1018.13 1018.31 1018.48 1018.64 1018.78 1018.89 1018.98 1019.05 1019.11 1019.16 1019.21 1019.26 1019.31 1019.35 1019.39 1019.42 1019.44 1019.45 1019.44 1019.41 1019.37 1019.29 1019.18 1019.02 1018.81 1018.54 1018.21 1017.84 1017.42 1016.98 1016.53 1016.08 1015.65 1015.24 1014.85 1014.48 1014.12 1013.76 1013.40 1013.03
1016.82 1016.89 1017.00 1017.15 1017.33 1017.52 1017.72 1017.91 1018.08 1018.23 1018.36 1018.46 1018.55 1018.63 1018.69 1018.74 1018.79 1018.82 1018.85 1018.86 1018.87 1018.87 1018.86 1018.82 1018.76 1018.65 1018.50 1018.30 1018.04 1017.72 1017.36 1016.96 1016.53 1016.09 1015.66 1015.24 1014.84 1014.46 1014.09 1013.72 1013.36 1013.00 1012.63
1016.03 1016.02 1016.08 1016.19 1016.35 1016.55 1016.77 1017.00 1017.22 1017.43 1017.61 1017.77 1017.90 1018.00 1018.08 1018.13 1018.17 1018.20 1018.21 1018.22 1018.23 1018.23 1018.22 1018.19 1018.14 1018.05 1017.92 1017.73 1017.50 1017.21 1016.87 1016.49 1016.09 1015.67 1015.25 1014.84 1014.44 1014.05 1013.68 1013.30 1012.93 1012.56 1012.19
1015.36 1015.27 1015.26 1015.32 1015.46 1015.65 1015.88 1016.13 1016.39 1016.64 1016.87 1017.06 1017.22 1017.35 1017.43 1017.49 1017.52 1017.54 1017.54 1017.54 1017.54 1017.53 1017.53 1017.51 1017.47 1017.40 1017.30 1017.14 1016.94 1016.69 1016.39 1016.05 1015.68 1015.29 1014.89 1014.48 1014.08 1013.68 1013.28 1012.88 1012.49 1012.10 1011.71
1014.82 1014.66 1014.59 1014.61 1014.70 1014.87 1015.10 1015.35 1015.63 1015.90 1016.15 1016.37 1016.55 1016.69 1016.78 1016.84 1016.87 1016.87 1016.86 1016.85 1016.83 1016.82 1016.81 1016.80 1016.78 1016.73 1016.66 1016.55 1016.39 1016.19 1015.94 1015.65 1015.32 1014.96 1014.57 1014.17 1013.76 1013.33 1012.91 1012.48 1012.06 1011.64 1011.23
1014.44 1014.22 1014.10 1014.07 1014.12 1014.25 1014.45 1014.69 1014.96 1015.23 1015.48 1015.71 1015.90 1016.04 1016.14 1016.20 1016.21 1016.21 1016.19 1016.17 1016.14 1016.12 1016.11 1016.10 1016.09 1016.07 1016.02 1015.95 1015.84 1015.69 1015.49 1015.25 1014.97 1014.64 1014.28 1013.88 1013.46 1013.02 1012.56 1012.09 1011.63 1011.18 1010.74
1014.16 1013.91 1013.75 1013.67 1013.68 1013.77 1013.92 1014.13 1014.36 1014.61 1014.85 1015.07 1015.26 1015.40 1015.50 1015.56 1015.58 1015.57 1015.54 1015.51 1015.48 1015.45 1015.43 1015.42 1015.41 1015.40 1015.38 1015.33 1015.27 1015.16 1015.02 1014.83 1014.59 1014.30 1013.97 1013.58 1013.16 1012.69 1012.21 1011.71 1011.20 1010.71 1010.25
Thickness
5657 5656 5656 5655 5654 5654 5653 5653 5654 5655 5656 5657 5658 5659 5659 5660 5660 5661 5661 5662 5663 5663 5664 5665 5665 5665 5665 5665 5665 5665 5665 5665 5664 5664 5664 5664 5664 5664 5664 5664 5664 5664 5663
5650 5649 5647 5647 5646 5646 5645 5645 5645 5646 5647 5648 5649 5650 5651 5652 5653 5653 5653 5653 5654 5654 5655 5656 5657 5657 5657 5657 5657 5658 5657 5657 5657 5658 5658 5658 5658 5658 5658 5658 5658 5658 5658
5642 5641 5639 5638 5638 5637 5637 5637 5637 5638 5639 5639 5640 5642 5643 5644 5644 5644 5644 5644 5644 5645 5646 5646 5647 5648 5648 5649 5649 5649 5650 5650 5650 5650 5650 5651 5651 5652 5652 5652 5652 5652 5652
5634 5633 5631 5630 5630 5629 5629 5629 5628 5628 5629 5630 5631 5633 5634 5635 5635 5635 5635 5634 5634 5634 5635 5635 5636 5637 5638 5639 5640 5641 5641 5642 5642 5642 5642 5643 5644 5645 5645 5646 5646 5646 5646
5625 5624 5623 5622 5621 5621 5620 5620 5619 5619 5619 5620 5623 5625 5625 5625 5625 5625 5624 5624 5623 5623 5623 5624 5625 5626 5627 5628 5629 5631 5631 5632 5632 5633 5634 5635 5636 5636 5637 5639 5640 5640 5640
5616 5616 5615 5614 5613 5612 5611 5611 5610 5611 5611 5611 5614 5615 5616 5616 5615 5614 5613 5612 5611 5611 5611 5611 5612 5613 5614 5615 5616 5618 5620 5621 5623 5623 5625 5627 5628 5629 5630 5631 5632 5633 5633
5608 5607 5606 5605 5604 5603 5602 5602 5601 5601 5601 5602 5603 5604 5606 5606 5604 5603 5601 5600 5599 5599 5599 5599 5599 5600 5601 5602 5603 5605 5607 5609 5611 5613 5615 5617 5619 5620 5622 5623 5624 5625 5627
5599 5598 5597 5596 5595 5594 5593 5593 5592 5591 5590 5590 5589 5589 5590 5592 5593 5592 5590 5588 5586 5586 5586 5586 5587 5587 5588 5588 5590 5591 5594 5596 5599 5602 5604 5606 5608 5611 5613 5615 5616 5618 5619
5591 5590 5589 5588 5587 5586 5584 5583 5582 5581 5578 5578 5577 5575 5574 5574 5574 5578 5576 5575 5573 5573 5573 5573 5574 5574 5575 5575 5576 5578 5580 5583 5586 5589 5592 5595 5597 5600 5603 5605 5607 5609 5611
5584 5583 5582 5580 5579 5577 5575 5574 5572 5570 5568 5566 5565 5563 5561 5559 5558 5561 5563 5562 5561 5560 5560 5560 5560 5561 5561 5561 5563 5564 5566 5570 5574 5577 5581 5583 5586 5589 5592 5594 5597 5599 5601
5576 5575 5573 5572 5570 5568 5566 5564 5562 5560 5558 5555 5553 5551 5549 5547 5545 5544 5547 5547 5547 5547 5547 5547 5547 5547 5548 5548 5549 5551 5553 5556 5560 5564 5568 5571 5574 5577 5579 5582 5585 5587 5591
5568 5566 5565 5563 5560 5558 5556 5554 5552 5550 5547 5544 5542 5539 5537 5535 5533 5531 5530 5531 5531 5533 5534 5534 5534 5534 5535 5535 5536 5538 5540 5542 5546 5550 5554 5558 5560 5563 5566 5569 5572 5576 5579
5558 5557 5555 5553 5550 5548 5546 5544 5541 5539 5536 5533 5531 5528 5526 5523 5521 5519 5518 5517 5518 5520 5522 5522 5521 5521 5521 5522 5523 5524 5526 5529 5532 5535 5539 5544 5546 5549 5552 5555 5559 5562 5566
5550 5548 5546 5543 5540 5538 5535 5533 5530 5527 5524 5522 5519 5517 5514 5511 5509 5507 5505 5504 5504 5505 5507 5509 5509 5508 5508 5508 5509 5511 5512 5515 5518 5522 5525 5528 5531 5534 5537 5541 5545 5548 5552
5542 5539 5536 5533 5530 5527 5524 5521 5518 5515 5513 5510 5507 5504 5502 5499 5497 5495 5493 5491 5490 5491 5493 5494 5494 5494 5494 5494 5495 5496 5498 5500 5503 5507 5510 5513 5516 5520 5523 5526 5530 5533 5536
5533 5530 5526 5523 5520 5517 5513 5510 5506 5503 5500 5497 5495 5492 5489 5487 5485 5482 5480 5478 5477 5476 5477 5479 5478 5478 5478 5479 5480 5481 5483 5485 5488 5491 5494 5497 5500 5504 5507 5510 5514 5517 5521
5524 5520 5517 5513 5510 5506 5502 5499 5495 5492 5489 5485 5483 5480 5477 5475 5472 5470 5467 5465 5464 5462 5462 5464 5464 5464 5464 5464 5466 5467 5469 5471 5473 5476 5479 5482 5485 5488 5491 5494 5498 5501 5505
5515 5511 5507 5503 5500 5496 5492 5488 5484 5481 5477 5474 5471 5468 5465 5463 5460 5458 5455 5453 5451 5450 5449 5450 5450 5450 5450 5450 5451 5453 5455 5457 5458 5461 5464 5466 5469 5472 5475 5479 5482 5485 5489
5506 5502 5497 5493 5489 5486 5481 5477 5474 5470 5466 5463 5460 5457 5454 5451 5449 5446 5443 5441 5439 5439 5437 5436 5436 5436 5436 5437 5438 5439 5440 5442 5444 5446 5449 5451 5453 5456 5459 5462 5465 5468 5473
5496 5492 5488 5483 5479 5475 5471 5467 5463 5459 5455 5452 5449 5446 5443 5440 5438 5435 5433 5430 5428 5426 5424 5423 5424 5423 5423 5424 5424 5425 5427 5427 5429 5432 5433 5435 5437 5440 5442 5446 5449 5453 5457
5487 5482 5478 5473 5469 5465 5461 5456 5452 5449 5445 5441 5438 5435 5433 5430 5428 5426 5423 5420 5417 5415 5413 5412 5411 5411 5411 5410 5410 5411 5411 5413 5415 5417 5418 5419 5422 5425 5427 5430 5432 5436 5441
5476 5472 5467 5463 5459 5455 5452 5449 5444 5439 5435 5431 5428 5425 5422 5420 5418 5416 5414 5411 5408 5405 5402 5400 5399 5398 5398 5397 5397 5397 5397 5398 5400 5402 5403 5405 5407 5410 5412 5414 5418 5421 5425
5465 5460 5456 5452 5449 5446 5443 5440 5436 5431 5426 5422 5418 5415 5413 5410 5408 5405 5403 5401 5398 5396 5394 5391 5389 5387 5386 5386 5385 5385 5384 5383 5384 5386 5387 5392 5394 5396 5398 5400 5404 5407 5411
5454 5450 5446 5442 5439 5436 5433 5430 5426 5422 5417 5413 5408 5405 5402 5400 5397 5394 5391 5389 5386 5384 5383 5381 5379 5378 5377 5376 5374 5374 5372 5372 5372 5372 5373 5376 5380 5382 5386 5388 5390 5393 5396
5444 5440 5436 5432 5428 5426 5423 5420 5416 5411 5407 5403 5399 5396 5392 5390 5388 5386 5383 5379 5377 5374 5373 5372 5370 5369 5367 5366 5364 5362 5360 5359 5360 5361 5359 5359 5364 5367 5373 5376 5376 5378 5380
5434 5431 5427 5423 5419 5416 5413 5410 5406 5401 5397 5394 5390 5387 5385 5382 5380 5377 5374 5370 5367 5365 5362 5361 5359 5357 5355 5353 5352 5350 5347 5345 5344 5346 5347 5345 5347 5348 5356 5362 5363 5364 5366